Regional Weather Roundup
Issued by NWS

Home | Current Version | Previous Version | Text Only | Print | Product List | Glossary Off
Versions: 1 2 3 4 5 6 7 8 9 10 11 12 13 14 15 16 17 18 19 20 21 22 23 24 25 26 27 28 29 30 31 32 33 34 35 36 37 38 39 40 41 42 43 44 45 46 47 48 49 50

194
ASUS45 KBOU 270207
RWRCO

WEATHER ROUNDUP FOR COLORADO
NATIONAL WEATHER SERVICE DENVER/BOULDER CO
800 PM MDT WED APR 26 2017

NOTE: "FAIR" INDICATES FEW OR NO CLOUDS BELOW 12000 FEET WITH NO
SIGNIFICANT WEATHER AND/OR OBSTRUCTIONS TO VISIBILITY.

COZ001>005-013-030-031-270300-
...NORTHWEST COLORADO...

CITY           SKY/WX    TMP DP  RH WIND       PRES   REMARKS
CRAIG          MOCLDY    47  28  47 W12       29.74S
HAYDEN         CLOUDY    41  30  65 SE12      29.75S
MEEKER         CLOUDY    43  35  73 E8        29.76S
MOUNT WERNER   NOT AVBL
STEAMBOAT SPGS CLOUDY    37  33  84 E9        29.76S
WALDEN           N/A     34  30  86 S3        29.79R
$$

COZ006>008-011-270300-
...WEST CENTRAL VALLEYS...

CITY           SKY/WX    TMP DP  RH WIND       PRES   REMARKS
GRAND JUNCTION MOCLDY    58  23  26 W3        29.72F
MONTROSE       CLOUDY    53  25  33 N5        29.76F
EAGLE          CLOUDY    45  30  55 CALM      29.81S
RIFLE          MOCLDY    49  34  56 CALM      29.77S
DELTA          MOCLDY    60  19  20 W6        29.74F
NUCLA          CLOUDY    54  18  24 NW6       29.79F
$$

COZ017>023-064>068-270300-
...SOUTHWEST COLORADO...

CITY           SKY/WX    TMP DP  RH WIND       PRES   REMARKS
DURANGO        CLOUDY    50  13  22 W10       29.80F
CORTEZ         CLOUDY    55  19  24 W5        29.78F
PAGOSA SPRINGS FAIR      47  18  32 W9G17     29.83R
TELLURIDE      CLOUDY    40  22  49 CALM      29.89S
WOLF CREEK PAS CLOUDY    25  19  80 SW17G25   29.96R WCI  11
$$

COZ009-010-012-014-032>034-037-058>063-270300-
...CENTRAL COLORADO...

CITY           SKY/WX    TMP DP  RH WIND       PRES   REMARKS
ASPEN          CLOUDY    38  30  73 SW3       29.82R
BUENA VISTA    FAIR      42  15  33 W18       29.78R
COPPER MTN     SNOW      25  19  80 MISG      29.87S VSB 1/2
BERTHOUD PASS  MOCLDY    18   5  57 NW32G40   29.80F WCI  -3
COTTONWOOD PAS CLOUDY    36  18  48 SW7G20    29.82S
GUNNISON       FAIR      43  22  43 NW5       29.81F
KREMMLING      CLOUDY    41  36  81 E5        29.80S
LEADVILLE      CLOUDY    30  20  66 N8        29.83R WCI  22
MONARCH PASS     N/A     23  19  86 W48G55    29.94R WCI   2
SALIDA         FAIR      44  24  45 W16G22    29.84R
SUNLIGHT       MOCLDY    27  23  86 SW9       29.90F WCI  17
WILKERSON PASS FAIR      28  14  54 NW12G24   29.87R WCI  18
$$

COZ069>075-270300-
...SAN LUIS VALLEY/SANGRE DE CRISTO MOUNTAINS...

CITY           SKY/WX    TMP DP  RH WIND       PRES   REMARKS
ALAMOSA        MOCLDY    45  27  49 NW5       29.77R
LA VETA PASS   FAIR      30  27  86 SW9G16    29.93S WCI  22
SAGUACHE       CLOUDY    43  21  42 N10       29.80R
$$

COZ035-036-038>040-270300-
...NORTHERN COLORADO FRONT RANGE...

CITY           SKY/WX    TMP DP  RH WIND       PRES   REMARKS
DENVER INTL AP MOCLDY    49  31  49 NE14      29.69R
DMNS CITY PARK   N/A     53  22  30 N14       29.70R
AURORA         MOCLDY    48  28  46 NE6       29.71R
FRONT RANGE AP MOCLDY    50  32  50 E12       29.70S
ERIE MUNI ARPT FAIR      47  29  49 W6        29.69R
BOULDER MUN AP FAIR      50  30  46 S3        29.68F
CENTENNIAL     MOCLDY    48  30  49 E10       29.71S
BROOMFIELD     MOCLDY    50  27  40 NW12      29.70S
FORT COLLINS   LGT RAIN  52  31  44 SE8       29.68S
LONGMONT       FAIR      51  31  47 NW6       29.70S HAZE
$$

COZ041-046-047-076>085-087-088-270300-
...PIKES PEAK/PALMER DIVIDE AND SOUTHERN FOOTHILLS...

CITY           SKY/WX    TMP DP  RH WIND       PRES   REMARKS
COLO. SPRINGS  MOCLDY    48  31  51 W5        29.73S
A. F. ACADEMY  MOCLDY    44  30  57 NW5       29.73R
SCHRIEVER AFB  MOCLDY    43  34  69 E9        29.74R
ELLICOTT       MIX PCPN N/A N/A N/A E10       29.72F
FALCON         MOCLDY    41  32  72 N6        29.76R
FORT CARSON    MOCLDY    47  32  55 SW12      29.71S
LIMON          FAIR      45  34  65 SW8       29.71S
MONUMENT HILL  FAIR      34  32  93 E3        29.77S
TRINIDAD       CLOUDY    50  38  63 S13       29.71F
$$

COZ042>045-048>051-090-091-270300-
...NORTHEAST COLORADO...

CITY           SKY/WX    TMP DP  RH WIND       PRES   REMARKS
GREELEY ARPT   FAIR      48  36  63 E7        29.70S
AKRON          CLOUDY    47  33  58 N5        29.70R
BURLINGTON     NOT AVBL
WRAY           NOT AVBL
STERLING       CLOUDY    48  39  71 W6        29.69R
HOLYOKE        DRIZZLE   50  39  66 N3        29.69S
FORT MORGAN    MOCLDY    46  36  67 NE9       29.70S
$$

COZ086-089-092>099-270300-
...SOUTHEAST COLORADO...

CITY           SKY/WX    TMP DP  RH WIND       PRES   REMARKS
PUEBLO         MOCLDY    54  35  48 SE8       29.69R
LA JUNTA       CLOUDY    55  37  50 S6        29.69S
LAMAR          CLOUDY    53  34  48 SE8       29.68S
SPRINGFIELD      N/A     48  34  58 SW3       29.73S
$$




USA.gov is the U.S. government's official web portal to all federal, state and local government web resources and services.